When you browse on this site, cookies collect data to enhance your experience and personalize the content and advertising you see.
Visit our Privacy Policy to learn more. By continuing to use the site, you agree to this use of cookies and data.
  • In Latvia
  • List of Countries
  • For 7 days
  • Water Temperature
  • Weather Map
  • Weather Widgets
  • user-avatar
    Login

    Hourly Weather Holyuny

    Today, 4 June, Thursday

    Time Temperature Precipitation Wind Pressure Humidity
    00:00 +9°C° 0 mm 1 mps 742 mmHg 98%
    01:00 +9°C° 0 mm 1 mps 741 mmHg 97%
    02:00 +9°C° 0 mm 1 mps 741 mmHg 98%
    03:00 +9°C° 0 mm 1 mps 741 mmHg 97%
    04:00 +10°C° 0 mm 1 mps 740 mmHg 96%
    05:00 +9°C° 0 mm 0 mps 740 mmHg 95%
    06:00 +11°C° 0.1 mm 1 mps 740 mmHg 93%
    07:00 +12°C° 0.1 mm 1 mps 739 mmHg 90%
    08:00 +12°C° 0 mm 1 mps 739 mmHg 87%
    09:00 +14°C° 0 mm 1 mps 739 mmHg 82%
    10:00 +15°C° 0 mm 1 mps 738 mmHg 77%
    11:00 +16°C° 0 mm 2 mps 738 mmHg 72%
    12:00 +18°C° 0.1 mm 1 mps 738 mmHg 70%
    13:00 +18°C° 0.1 mm 1 mps 737 mmHg 68%
    14:00 +20°C° 0 mm 1 mps 738 mmHg 61%
    15:00 +19°C° 0.2 mm 1 mps 737 mmHg 63%
    16:00 +19°C° 0.2 mm 1 mps 737 mmHg 65%
    17:00 +18°C° 0.2 mm 2 mps 737 mmHg 67%
    18:00 +16°C° 0.3 mm 2 mps 737 mmHg 75%
    19:00 +15°C° 0.3 mm 1 mps 737 mmHg 83%
    20:00 +13°C° 0.3 mm 1 mps 737 mmHg 90%
    21:00 +12°C° 0 mm 2 mps 737 mmHg 92%
    22:00 +10°C° 0 mm 2 mps 737 mmHg 94%
    23:00 +9°C° 0 mm 2 mps 737 mmHg 96%

    Tomorrow, 5 June, Friday

    Time Temperature Precipitation Wind Pressure Humidity
    00:00 +9°C° 0 mm 2 mps 737 mmHg 96%
    01:00 +9°C° 0 mm 2 mps 737 mmHg 96%
    02:00 +8°C° 0 mm 2 mps 738 mmHg 97%
    03:00 +8°C° 0 mm 2 mps 738 mmHg 97%
    04:00 +8°C° 0 mm 2 mps 737 mmHg 96%
    05:00 +9°C° 0 mm 2 mps 737 mmHg 96%
    06:00 +10°C° 0 mm 2 mps 738 mmHg 91%
    07:00 +13°C° 0 mm 2 mps 738 mmHg 86%
    08:00 +14°C° 0 mm 2 mps 739 mmHg 81%
    09:00 +16°C° 0 mm 2 mps 739 mmHg 70%
    10:00 +18°C° 0 mm 3 mps 739 mmHg 59%
    11:00 +19°C° 0 mm 3 mps 739 mmHg 49%
    12:00 +20°C° 0 mm 3 mps 739 mmHg 47%
    13:00 +21°C° 0 mm 3 mps 739 mmHg 45%
    14:00 +22°C° 0 mm 3 mps 739 mmHg 44%
    15:00 +21°C° 0 mm 3 mps 739 mmHg 45%
    16:00 +21°C° 0 mm 3 mps 739 mmHg 47%
    17:00 +21°C° 0 mm 3 mps 739 mmHg 49%
    18:00 +20°C° 0 mm 3 mps 739 mmHg 57%
    19:00 +18°C° 0 mm 3 mps 739 mmHg 66%
    20:00 +16°C° 0 mm 2 mps 739 mmHg 75%
    21:00 +14°C° 0 mm 3 mps 739 mmHg 78%
    22:00 +13°C° 0 mm 3 mps 739 mmHg 81%
    23:00 +12°C° 0 mm 3 mps 739 mmHg 83%

    Day after tomorrow, 6 June, Saturday

    Time Temperature Precipitation Wind Pressure Humidity
    00:00 +13°C° 0 mm 4 mps 739 mmHg 84%
    01:00 +13°C° 0 mm 4 mps 739 mmHg 85%
    02:00 +13°C° 0 mm 4 mps 739 mmHg 85%
    03:00 +13°C° 0.2 mm 4 mps 739 mmHg 89%
    04:00 +14°C° 0.2 mm 4 mps 739 mmHg 92%
    05:00 +14°C° 0.2 mm 4 mps 738 mmHg 95%
    06:00 +15°C° 0 mm 4 mps 738 mmHg 92%
    07:00 +16°C° 0 mm 5 mps 738 mmHg 89%
    08:00 +17°C° 0 mm 5 mps 738 mmHg 85%
    09:00 +17°C° 1.1 mm 5 mps 739 mmHg 89%
    10:00 +16°C° 1.1 mm 5 mps 739 mmHg 92%
    11:00 +16°C° 1.1 mm 5 mps 739 mmHg 96%
    12:00 +19°C° 0.1 mm 5 mps 740 mmHg 83%
    13:00 +20°C° 0.1 mm 5 mps 740 mmHg 71%
    14:00 +22°C° 0.1 mm 5 mps 741 mmHg 59%
    15:00 +22°C° 0.2 mm 5 mps 741 mmHg 63%
    16:00 +21°C° 0.2 mm 5 mps 741 mmHg 68%
    17:00 +20°C° 0.2 mm 4 mps 742 mmHg 73%
    18:00 +19°C° 0 mm 4 mps 742 mmHg 76%
    19:00 +18°C° 0 mm 3 mps 743 mmHg 79%
    20:00 +16°C° 0 mm 2 mps 744 mmHg 82%
    21:00 +15°C° 0 mm 2 mps 745 mmHg 85%
    22:00 +14°C° 0 mm 1 mps 745 mmHg 88%
    23:00 +12°C° 0 mm 1 mps 746 mmHg 91%

    7 June, Sunday

    Time Temperature Precipitation Wind Pressure Humidity
    00:00 +12°C° 0 mm 1 mps 746 mmHg 91%
    01:00 +12°C° 0 mm 2 mps 747 mmHg 90%
    02:00 +12°C° 0 mm 2 mps 747 mmHg 90%
    03:00 +12°C° 0 mm 2 mps 747 mmHg 89%
    04:00 +13°C° 0 mm 2 mps 748 mmHg 88%
    05:00 +14°C° 0 mm 2 mps 748 mmHg 87%
    06:00 +16°C° 0 mm 2 mps 748 mmHg 79%
    07:00 +18°C° 0 mm 3 mps 749 mmHg 72%
    08:00 +20°C° 0 mm 3 mps 749 mmHg 65%
    09:00 +22°C° 0 mm 3 mps 749 mmHg 60%
    10:00 +24°C° 0 mm 3 mps 749 mmHg 54%
    11:00 +26°C° 0 mm 3 mps 750 mmHg 49%
    12:00 +26°C° 0 mm 4 mps 749 mmHg 47%
    13:00 +27°C° 0 mm 4 mps 749 mmHg 46%
    14:00 +27°C° 0 mm 5 mps 749 mmHg 44%
    15:00 +26°C° 0 mm 5 mps 748 mmHg 48%
    16:00 +26°C° 0 mm 4 mps 748 mmHg 52%
    17:00 +25°C° 0 mm 4 mps 747 mmHg 57%
    18:00 +23°C° 0.2 mm 4 mps 747 mmHg 65%
    19:00 +22°C° 0.2 mm 4 mps 747 mmHg 74%
    20:00 +21°C° 0.2 mm 4 mps 747 mmHg 82%
    21:00 +21°C° 0.1 mm 4 mps 747 mmHg 85%
    22:00 +20°C° 0.1 mm 4 mps 747 mmHg 88%
    23:00 +20°C° 0.1 mm 3 mps 747 mmHg 91%

    8 June, Monday

    Time Temperature Precipitation Wind Pressure Humidity
    00:00 +19°C° 0 mm 3 mps 747 mmHg 91%
    01:00 +18°C° 0 mm 3 mps 747 mmHg 92%
    02:00 +18°C° 0 mm 3 mps 747 mmHg 92%
    03:00 +18°C° 0 mm 3 mps 747 mmHg 92%
    04:00 +18°C° 0 mm 3 mps 747 mmHg 93%
    05:00 +18°C° 0 mm 3 mps 748 mmHg 93%
    06:00 +20°C° 0 mm 3 mps 748 mmHg 86%
    07:00 +21°C° 0 mm 3 mps 748 mmHg 80%
    08:00 +24°C° 0 mm 3 mps 749 mmHg 74%
    09:00 +25°C° 0 mm 3 mps 749 mmHg 68%
    10:00 +27°C° 0 mm 4 mps 749 mmHg 61%
    11:00 +28°C° 0 mm 4 mps 749 mmHg 55%
    12:00 +29°C° 0 mm 4 mps 749 mmHg 51%
    13:00 +30°C° 0 mm 4 mps 749 mmHg 48%
    14:00 +30°C° 0 mm 4 mps 748 mmHg 44%
    15:00 +30°C° 0 mm 4 mps 748 mmHg 46%
    16:00 +29°C° 0 mm 4 mps 748 mmHg 47%
    17:00 +29°C° 0 mm 3 mps 748 mmHg 49%
    18:00 +27°C° 0.1 mm 3 mps 748 mmHg 60%
    19:00 +25°C° 0.1 mm 2 mps 748 mmHg 71%
    20:00 +23°C° 0.1 mm 2 mps 748 mmHg 83%
    21:00 +21°C° 0.1 mm 2 mps 749 mmHg 86%
    22:00 +20°C° 0.1 mm 2 mps 749 mmHg 90%
    23:00 +19°C° 0.1 mm 2 mps 749 mmHg 93%

    9 June, Tuesday

    Time Temperature Precipitation Wind Pressure Humidity
    00:00 +19°C° 0 mm 2 mps 749 mmHg 94%
    01:00 +18°C° 0 mm 2 mps 749 mmHg 95%
    02:00 +18°C° 0 mm 2 mps 749 mmHg 96%
    03:00 +18°C° 0 mm 2 mps 749 mmHg 95%
    04:00 +19°C° 0 mm 2 mps 749 mmHg 94%
    05:00 +19°C° 0 mm 2 mps 749 mmHg 93%
    06:00 +21°C° 0 mm 3 mps 749 mmHg 86%
    07:00 +24°C° 0 mm 3 mps 750 mmHg 78%
    08:00 +25°C° 0 mm 3 mps 750 mmHg 70%
    09:00 +27°C° 0 mm 3 mps 750 mmHg 63%
    10:00 +28°C° 0 mm 4 mps 750 mmHg 56%
    11:00 +29°C° 0 mm 4 mps 750 mmHg 49%
    12:00 +29°C° 0 mm 4 mps 750 mmHg 50%
    13:00 +29°C° 0 mm 3 mps 750 mmHg 50%
    14:00 +29°C° 0 mm 3 mps 750 mmHg 51%
    15:00 +29°C° 0 mm 3 mps 749 mmHg 52%
    16:00 +29°C° 0 mm 3 mps 749 mmHg 53%
    17:00 +29°C° 0 mm 3 mps 749 mmHg 54%
    18:00 +27°C° 0.1 mm 3 mps 749 mmHg 63%
    19:00 +25°C° 0.1 mm 2 mps 749 mmHg 71%
    20:00 +24°C° 0.1 mm 2 mps 749 mmHg 79%
    21:00 +23°C° 0 mm 2 mps 749 mmHg 82%
    22:00 +21°C° 0 mm 2 mps 750 mmHg 85%
    23:00 +21°C° 0 mm 2 mps 750 mmHg 89%
    Show more